Weather History for Lincoln, NE

Change the Weather History Date:

Sunday, November 11, 2012

  Actual Average Record
Temperature  
Mean Temperature 31 °F 41 °F  
Max Temperature 40 °F 53 °F 74 °F (1964)
Min Temperature 21 °F 30 °F -1 °F (1986)
Degree Days  
Heating Degree Days 34 24  
Month to date heating degree days 212 231  
Since 1 July heating degree days 794 710  
Cooling Degree Days 0 0  
Month to date cooling degree days 0 0  
Year to date cooling degree days 1491 1173  
Moisture  
Dew Point 21 °F    
Average Humidity 67    
Maximum Humidity 96    
Minimum Humidity 38    
Precipitation  
Precipitation T in 0.05 in 0.83 in (2008)
Month to date precipitation 0.15 0.59  
Year to date precipitation 17.64 27.16  
Snow  
Snow 0.00 in 0.10 in - ()
Month to date snowfall 0.0 0.5  
Since 1 July snowfall 0.0 1.2  
Snow Depth 0.00 in    
Sea Level Pressure  
Sea Level Pressure 29.96 in    
Wind  
Wind Speed 14 mph (NW)    
Max Wind Speed 26 mph    
Max Gust Speed 33 mph    
Visibility 9 miles    
Events Rain    
T = Trace of Precipitation, MM = Missing Value Source: NWS Daily Summary

Daily Weather History Graph

Daily Weather History Graph

Search for Another Location

Airport:

Trip Planner

Search our weather history database for the weather conditions in past years. The results will help you decide how hot, cold, wet, or windy it might be!

Date:

Astronomy

Nov. 11, 2012 Rise Set
Actual Time 7:10 AM CST 5:11 PM CST
Civil Twilight 6:40 AM CST 5:40 PM CST
Nautical Twilight 6:07 AM CST 6:13 PM CST
Astronomical Twilight 5:35 AM CST 6:46 PM CST
Moon 4:24 AM CST (11/11) 3:36 PM CST (11/11)
Length of Visible Light 11h 00m
Length of Day
10h 01m
Waning Crescent, 7% of the Moon is Illuminated
Nov 11
Waning Crescent
Nov 13
New
Nov 20
First Quarter
Nov 28
Full
Dec 6
Last Quarter

Hourly Weather History & Observations

Time (CST) Temp. Windchill Dew Point Humidity Pressure Visibility Wind Dir Wind Speed Gust Speed Precip Events Conditions
12:31 AM 37.4 °F 26.9 °F 35.6 °F 93% 29.74 in 8.0 mi NNW 20.7 mph 25.3 mph N/A   Overcast
12:42 AM 37.4 °F 27.5 °F 35.6 °F 93% 29.74 in 4.0 mi NW 18.4 mph 25.3 mph 0.00 in Rain Light Rain
12:54 AM 35.1 °F 24.1 °F 34.0 °F 96% 29.76 in 4.0 mi NW 19.6 mph 27.6 mph 0.00 in   Overcast
1:54 AM 34.0 °F 23.4 °F 32.0 °F 92% 29.76 in 6.0 mi NNW 17.3 mph 24.2 mph N/A   Overcast
2:12 AM 33.8 °F 23.9 °F 30.2 °F 87% 29.79 in 3.0 mi NNW 15.0 mph - 0.00 in Rain Light Rain
2:19 AM 33.8 °F 23.9 °F 30.2 °F 87% 29.79 in 4.0 mi NNW 15.0 mph 23.0 mph 0.00 in Rain Light Rain
2:33 AM 33.8 °F 23.2 °F 30.2 °F 87% 29.79 in 3.0 mi NNW 17.3 mph 21.9 mph 0.00 in Rain Light Rain
2:41 AM 32.0 °F 20.5 °F 30.2 °F 93% 29.80 in 3.0 mi NNW 18.4 mph - 0.00 in Rain Light Freezing Rain
2:54 AM 32.0 °F 20.5 °F 30.0 °F 92% 29.82 in 4.0 mi NNW 18.4 mph - 0.00 in Rain Light Freezing Rain
3:11 AM 32.0 °F 19.8 °F 28.4 °F 87% 29.82 in 7.0 mi NNW 20.7 mph 26.5 mph 0.00 in Rain Light Freezing Rain
3:20 AM 32.0 °F 20.8 °F 30.2 °F 93% 29.81 in 7.0 mi NNW 17.3 mph 21.9 mph 0.00 in   Overcast
3:45 AM 30.2 °F 17.4 °F 28.4 °F 93% 29.82 in 9.0 mi NNW 20.7 mph 28.8 mph 0.00 in   Overcast
3:52 AM 30.2 °F 17.8 °F 26.6 °F 86% 29.81 in 10.0 mi NNW 19.6 mph 31.1 mph 0.00 in   Overcast
3:54 AM 30.9 °F 18.1 °F 27.0 °F 85% 29.83 in 10.0 mi NNW 21.9 mph 31.1 mph 0.00 in   Overcast
4:07 AM 30.2 °F 18.1 °F 26.6 °F 86% 29.84 in 8.0 mi NNW 18.4 mph 28.8 mph N/A   Overcast
4:54 AM 28.9 °F 15.1 °F 24.1 °F 82% 29.83 in 10.0 mi NNW 23.0 mph 27.6 mph N/A   Overcast
5:04 AM 28.4 °F 14.4 °F 24.8 °F 86% 29.84 in 10.0 mi NNW 23.0 mph - N/A   Overcast
5:54 AM 28.0 °F 14.9 °F 21.9 °F 78% 29.88 in 10.0 mi NNW 19.6 mph 23.0 mph N/A   Overcast
6:34 AM 28.4 °F 15.1 °F 19.4 °F 69% 29.88 in 10.0 mi NNW 20.7 mph 28.8 mph N/A   Overcast
6:54 AM 27.0 °F 12.8 °F 19.9 °F 75% 29.91 in 10.0 mi NNW 21.9 mph 27.6 mph N/A   Overcast
7:54 AM 26.6 °F 14.3 °F 19.4 °F 74% 29.93 in 10.0 mi NW 16.1 mph - N/A   Overcast
8:07 AM 26.6 °F 12.7 °F 17.6 °F 69% 29.95 in 10.0 mi NW 20.7 mph - N/A   Overcast
8:33 AM 26.6 °F 12.4 °F 17.6 °F 69% 29.95 in 10.0 mi NNW 21.9 mph 27.6 mph N/A   Overcast
8:54 AM 26.1 °F 12.7 °F 18.0 °F 71% 29.98 in 10.0 mi NW 18.4 mph - N/A   Overcast
9:04 AM 26.6 °F 13.4 °F 17.6 °F 69% 29.96 in 10.0 mi NNW 18.4 mph 24.2 mph N/A   Overcast
9:54 AM 26.6 °F 13.8 °F 17.6 °F 69% 30.01 in 10.0 mi NW 17.3 mph - N/A   Overcast
10:13 AM 28.4 °F 15.4 °F 17.6 °F 64% 29.99 in 10.0 mi NNW 19.6 mph - N/A   Mostly Cloudy
10:54 AM 28.9 °F 17.3 °F 16.0 °F 58% 30.01 in 10.0 mi NNW 16.1 mph 31.1 mph N/A   Partly Cloudy
11:54 AM 30.2 °F 18.5 °F 15.8 °F 55% 30.01 in 10.0 mi NNW 17.3 mph 25.3 mph N/A   Clear
12:54 PM 30.9 °F 19.1 °F 14.0 °F 50% 30.05 in 10.0 mi NW 18.4 mph 26.5 mph N/A   Clear
1:54 PM 33.1 °F 21.5 °F 12.0 °F 42% 30.05 in 10.0 mi NNW 19.6 mph 28.8 mph N/A   Clear
2:54 PM 33.1 °F 21.5 °F 10.9 °F 40% 30.06 in 10.0 mi NW 19.6 mph 27.6 mph N/A   Clear
3:54 PM 33.1 °F 22.2 °F 10.9 °F 40% 30.10 in 10.0 mi NW 17.3 mph - N/A   Clear
4:54 PM 30.0 °F 18.7 °F 10.9 °F 45% 30.13 in 10.0 mi NW 16.1 mph 21.9 mph N/A   Clear
5:54 PM 28.0 °F 21.7 °F 12.0 °F 51% 30.16 in 10.0 mi WNW 5.8 mph - N/A   Clear
6:54 PM 27.0 °F 21.6 °F 12.9 °F 56% 30.18 in 10.0 mi WNW 4.6 mph - N/A   Clear
7:54 PM 26.1 °F 21.9 °F 12.9 °F 58% 30.19 in 10.0 mi West 3.5 mph - N/A   Clear
8:54 PM 25.0 °F 19.3 °F 14.0 °F 63% 30.23 in 10.0 mi WNW 4.6 mph - N/A   Clear
9:54 PM 24.1 °F - 14.0 °F 65% 30.24 in 10.0 mi Calm Calm - N/A   Clear
10:54 PM 23.0 °F 17.0 °F 14.0 °F 68% 30.25 in 10.0 mi West 4.6 mph - N/A   Clear
11:54 PM 21.0 °F 14.6 °F 12.9 °F 71% 30.26 in 10.0 mi West 4.6 mph - N/A   Clear